This is the latest recevied weather packets stored in our database for station/object N5SRF. If no packets are shown the sender has not sent any weather packets the latest 10 day(s).
| Time | Temp. | Humidity | Pressure | Rain* | Wind** | Luminosity | Snow |
|---|---|---|---|---|---|---|---|
| 1778017141 | 28.33° C | 80% | 1011 hPa | 0 mm | - | 226 W/m² | - |
| 1778016839 | 28.33° C | 80% | 1011.3 hPa | 0 mm | - | 219 W/m² | - |
| 1778016534 | 28.89° C | 78% | 1011.1 hPa | 0 mm | - | 86 W/m² | - |
| 1778016232 | 29.44° C | 76% | 1011 hPa | 0 mm | - | 160 W/m² | - |
| 1778015928 | 29.44° C | 76% | 1011 hPa | 0 mm | - | 544 W/m² | - |
| 1778015625 | 29.44° C | 75% | 1010.9 hPa | 0 mm | - | 291 W/m² | - |
| 1778015322 | 29.44° C | 77% | 1011.2 hPa | 0 mm | - | 312 W/m² | - |
| 1778015019 | 29.44° C | 77% | 1011.3 hPa | 0 mm | - | 408 W/m² | - |
| 1778014715 | 29.44° C | 78% | 1011.3 hPa | 0 mm | - | 553 W/m² | - |
| 1778014414 | 29.44° C | 78% | 1011.5 hPa | 0 mm | - | 474 W/m² | - |
| 1778014110 | 28.89° C | 79% | 1011.6 hPa | 0 mm | - | 444 W/m² | - |
| 1778013808 | 28.89° C | 79% | 1011.8 hPa | 0 mm | - | 311 W/m² | - |
| 1778013505 | 28.89° C | 78% | 1011.9 hPa | 0 mm | - | 304 W/m² | - |
| 1778013202 | 28.89° C | 79% | 1011.7 hPa | 0 mm | - | 263 W/m² | - |
| 1778012898 | 28.89° C | 80% | 1012 hPa | 0 mm | - | 776 W/m² | - |
| 1778012594 | 29.44° C | 78% | 1012.1 hPa | 0 mm | - | 205 W/m² | - |
| 1778012291 | 28.89° C | 78% | 1012 hPa | 0 mm | - | 232 W/m² | - |
| 1778011989 | 28.89° C | 79% | 1012 hPa | 0 mm | - | 322 W/m² | - |
| 1778011687 | 28.33° C | 78% | 1012.4 hPa | 0 mm | - | 465 W/m² | - |
| 1778011383 | 29.44° C | 77% | 1012.2 hPa | 0 mm | - | 159 W/m² | - |
| 1778011078 | 28.89° C | 79% | 1012.2 hPa | 0 mm | - | 305 W/m² | - |
| 1778010777 | 28.89° C | 78% | 1012.1 hPa | 0 mm | - | 541 W/m² | - |
| 1778010473 | 28.89° C | 78% | 1012.4 hPa | 0 mm | - | 332 W/m² | - |
| 1778010170 | 28.89° C | 78% | 1012.3 hPa | 0 mm | - | 296 W/m² | - |
| 1778009865 | 28.89° C | 80% | 1012.4 hPa | 0 mm | - | 394 W/m² | - |
* Rain latest hour (hover to see other rain measurements)
** Current wind speed in m/s (hover to see current wind gust speed)